Preview of NWS' New Version of Forecast
This preview is not operational and should not be used for support decisions.

Regional Weather Roundup (RWR)

Issued by National Weather Service (NWS)

                            
000
ASUS45 KBOI 221110
RWRID 

IDAHO REGIONAL WEATHER ROUNDUP
NATIONAL WEATHER SERVICE BOISE ID
500 AM MDT SUN SEP 22 2019

NOTE: "FAIR" INDICATES FEW OR NO CLOUDS BELOW 12000 FEET
WITH NO SIGNIFICANT WEATHER AND/OR OBSTRUCTIONS TO VISIBILITY

IDZ012-014-221200-
SOUTHWEST IDAHO

  
CITY           SKY/WX    TMP DP  RH WIND       PRES   REMARKS
BOISE          CLEAR     52  40  63 SE7       30.03F                  
CALDWELL       CLEAR     46  41  82 E5        30.03F                  
MOUNTAIN HOME  CLEAR     43  43  99 E8        30.05F                  
$$

IDZ016-017-221200-
SOUTHCENTRAL IDAHO

  
CITY           SKY/WX    TMP DP  RH WIND       PRES   REMARKS
BURLEY         CLEAR     44  35  70 SW9       30.10S                  
JEROME         CLEAR     45  35  68 SE7       30.10S                  
TWIN FALLS     CLEAR     45  35  68 SW10      30.10S                  
$$

IDZ019>023-221200-
SOUTHEAST IDAHO

  
CITY           SKY/WX    TMP DP  RH WIND       PRES   REMARKS
IDAHO FALLS    CLEAR     40  35  83 SW8       30.13S WCI  34          
POCATELLO      CLEAR     38  35  89 N8        30.13R WCI  32          
REXBURG        PTCLDY    44  38  79 SW10      30.12S                  
$$

IDZ006-010-011-018-031-032-221200-
CENTRAL IDAHO MOUNTAINS

  
CITY           SKY/WX    TMP DP  RH WIND       PRES   REMARKS
MCCALL         CLEAR     37  33  85 CALM      30.09F                  
HAILEY         CLEAR     39  36  87 NW8       30.15S WCI  34          
STANLEY          N/A     30  27  88 CALM      30.18S                  
SALMON         CLOUDY    48  44  86 CALM      30.09F                  
CHALLIS        PTCLDY    41  35  79 CALM      30.12S                  
$$

IDZ002-004-006-007-026-221200-
NORTHERN IDAHO

  
CITY           SKY/WX    TMP DP  RH WIND       PRES   REMARKS
LEWISTON       CLEAR     55  47  74 SE6       29.95F                  
LOWELL           N/A     49  48  97 CALM      30.05S                  
COEUR D'ALENE  CLEAR     42  40  92 NE6       29.98F                  
MULLAN PASS    CLEAR     43  38  82 S5        30.06S                  
$$